Dewpoint
-32 -33 -34 -35 -33 -29 -25 -23 -17 -11 -7 -7 -7 -7 -7 -7 -7 -7 -6 -6 -5 -4 -4 -3 -2 -1 -0 0 0 1 2 3 3 4 3 5 6 5 5 4 5 5 8
-34 -34 -36 -36 -34 -32 -26 -25 -26 -23 -22 -8 -7 -7 -7 -7 -7 -7 -7 -7 -6 -6 -6 -6 -5 -4 -2 -1 0 1 2 2 3 5 5 6 6 7 6 6 7 6 8
-34 -36 -36 -36 -33 -32 -27 -29 -30 -29 -30 -26 -17 -13 -17 -12 -7 -6 -6 -7 -7 -7 -7 -8 -8 -5 -4 -2 -1 0 1 2 3 4 5 5 5 5 5 6 6 6 6
-36 -36 -37 -37 -35 -32 -31 -30 -33 -31 -32 -29 -26 -27 -27 -29 -31 -28 -13 -7 -6 -7 -7 -8 -9 -8 -7 -5 -3 -2 -1 1 2 3 3 4 4 4 4 4 5 4 5
-35 -36 -36 -36 -34 -32 -32 -31 -35 -35 -34 -31 -26 -25 -26 -20 -30 -33 -35 -34 -26 -13 -8 -8 -8 -9 -9 -8 -5 -4 -3 -2 -1 -0 -1 -1 0 1 2 1 1 2 3
-34 -35 -36 -35 -34 -33 -31 -32 -37 -37 -37 -36 -32 -28 -24 -12 -16 -32 -34 -37 -37 -34 -28 -23 -21 -19 -18 -14 -9 -7 -5 -5 -5 -5 -6 -5 -4 -3 -2 -1 -0 1 -0
-32 -34 -35 -35 -35 -32 -29 -33 -38 -38 -38 -38 -37 -33 -28 -18 -13 -26 -32 -33 -36 -36 -34 -33 -27 -22 -23 -22 -21 -24 -22 -21 -20 -18 -17 -15 -14 -8 -5 -3 -3 -3 -9
-27 -30 -33 -35 -34 -29 -28 -31 -31 -32 -35 -36 -38 -37 -36 -26 -29 -30 -32 -33 -31 -31 -31 -33 -34 -29 -26 -26 -27 -27 -27 -26 -23 -24 -23 -25 -24 -21 -19 -15 -6 -6 -6
-22 -23 -27 -31 -31 -28 -27 -24 -21 -20 -21 -26 -29 -35 -35 -33 -31 -31 -31 -31 -31 -29 -24 -18 -28 -31 -29 -28 -31 -30 -28 -24 -25 -23 -24 -26 -27 -28 -27 -26 -27 -27 -23
-21 -23 -23 -26 -24 -25 -22 -19 -16 -15 -13 -18 -23 -27 -32 -32 -32 -31 -29 -28 -28 -25 -23 -23 -19 -26 -33 -33 -33 -29 -29 -27 -28 -29 -30 -29 -28 -25 -23 -20 -17 -18 -18
-24 -23 -25 -25 -22 -21 -17 -14 -12 -11 -11 -13 -17 -24 -28 -30 -23 -22 -20 -22 -20 -19 -18 -17 -14 -14 -20 -28 -29 -28 -25 -26 -29 -30 -29 -29 -29 -27 -23 -14 -13 -14 -14
-27 -27 -28 -27 -23 -20 -16 -11 -10 -10 -10 -11 -15 -22 -29 -32 -35 -33 -27 -23 -18 -17 -15 -15 -16 -17 -18 -23 -25 -26 -28 -29 -29 -30 -31 -30 -28 -26 -24 -23 -19 -15 -15
-30 -30 -29 -24 -19 -18 -15 -14 -12 -11 -11 -13 -17 -24 -30 -32 -34 -31 -21 -16 -16 -15 -15 -15 -15 -19 -21 -23 -25 -26 -28 -29 -28 -29 -27 -24 -23 -22 -25 -28 -28 -27 -24
-31 -30 -26 -21 -19 -18 -15 -13 -13 -14 -16 -19 -25 -30 -32 -34 -33 -31 -22 -18 -16 -17 -17 -19 -19 -20 -21 -22 -24 -25 -25 -26 -26 -25 -25 -26 -26 -26 -26 -26 -28 -29 -29
-30 -27 -22 -20 -17 -16 -20 -26 -20 -29 -25 -26 -30 -32 -34 -34 -31 -25 -21 -21 -18 -18 -21 -24 -26 -26 -27 -27 -27 -27 -26 -26 -25 -24 -25 -26 -26 -25 -23 -24 -25 -26 -25
-29 -25 -21 -19 -21 -21 -30 -28 -26 -28 -33 -34 -35 -35 -34 -34 -33 -19 -15 -17 -22 -24 -26 -27 -26 -25 -26 -25 -26 -26 -25 -25 -23 -23 -23 -23 -24 -25 -23 -23 -24 -23 -23
-27 -24 -20 -16 -14 -14 -14 -13 -14 -15 -16 -19 -24 -29 -32 -28 -25 -23 -18 -23 -26 -26 -28 -26 -26 -24 -25 -25 -26 -25 -24 -23 -22 -22 -21 -21 -22 -22 -21 -21 -23 -23 -23
-21 -18 -14 -13 -12 -12 -12 -12 -13 -13 -14 -15 -19 -23 -32 -25 -19 -27 -29 -27 -28 -28 -29 -28 -28 -27 -27 -27 -27 -28 -27 -26 -24 -23 -22 -22 -22 -22 -21 -20 -22 -23 -23
-13 -12 -14 -12 -12 -12 -12 -12 -14 -14 -14 -15 -17 -19 -29 -24 -20 -23 -26 -29 -31 -30 -29 -29 -29 -30 -30 -30 -30 -29 -29 -28 -26 -25 -24 -24 -24 -23 -22 -21 -22 -23 -24
-13 -13 -15 -13 -13 -13 -13 -15 -14 -14 -14 -15 -15 -17 -26 -23 -22 -26 -27 -27 -30 -30 -31 -30 -30 -31 -31 -30 -30 -30 -29 -29 -28 -27 -27 -27 -27 -24 -22 -22 -22 -23 -23
-14 -14 -15 -13 -13 -15 -17 -14 -14 -14 -15 -15 -18 -21 -25 -28 -24 -26 -26 -28 -30 -31 -31 -31 -31 -32 -31 -31 -30 -30 -29 -29 -29 -28 -28 -28 -28 -26 -23 -22 -22 -22 -24
-14 -14 -13 -16 -17 -14 -14 -15 -17 -19 -19 -20 -23 -22 -25 -26 -24 -26 -26 -28 -29 -30 -31 -31 -31 -31 -31 -31 -30 -29 -29 -29 -28 -28 -28 -28 -27 -27 -23 -23 -22 -22 -25
-14 -14 -14 -13 -14 -14 -17 -18 -21 -22 -23 -23 -21 -23 -22 -23 -24 -26 -27 -28 -29 -30 -30 -30 -30 -30 -30 -30 -30 -29 -28 -28 -28 -28 -28 -27 -26 -25 -24 -23 -23 -23 -26
-14 -16 -15 -14 -14 -17 -16 -18 -23 -21 -20 -20 -23 -23 -21 -22 -24 -26 -27 -29 -29 -29 -29 -29 -29 -30 -30 -30 -30 -28 -28 -28 -28 -28 -28 -26 -25 -25 -23 -23 -23 -23 -26
-13 -14 -14 -15 -16 -17 -19 -18 -18 -18 -20 -22 -23 -21 -21 -21 -24 -27 -28 -29 -28 -29 -29 -28 -29 -29 -30 -30 -29 -28 -28 -28 -28 -28 -28 -26 -25 -24 -24 -24 -24 -24 -25
-13 -13 -14 -14 -15 -16 -17 -18 -19 -19 -21 -21 -22 -21 -23 -25 -26 -27 -28 -28 -28 -28 -28 -28 -28 -29 -29 -29 -28 -28 -27 -27 -27 -28 -28 -27 -25 -24 -24 -24 -25 -24 -24
Wind_Speed
9 10 12 12 12 13 14 17 17 18 20 22 24 25 24 23 20 19 19 17 17 17 15 9 3 9 14 17 17 17 9 18 23 19 19 18 20 23 25 25 21 22 24
7 8 10 11 10 11 14 17 17 17 19 19 21 24 25 25 24 23 22 23 23 24 26 28 19 9 2 10 14 17 20 8 8 7 8 13 12 11 11 10 5 7 13
6 6 8 8 9 11 13 15 17 17 19 18 18 22 27 27 25 23 22 22 24 25 28 34 33 24 17 8 2 6 11 13 4 6 6 7 8 8 3 4 2 1 7
4 4 5 7 8 10 12 13 15 17 18 18 19 20 26 27 27 26 25 24 24 24 26 31 35 36 34 25 15 9 7 6 6 4 2 2 1 4 1 3 5 6 5
2 2 3 5 7 8 10 13 15 17 18 17 16 18 21 26 29 27 26 26 26 24 25 27 29 30 34 36 33 27 22 20 19 17 17 15 14 11 10 9 6 7 9
3 1 2 5 6 8 9 12 14 16 19 19 17 16 19 24 22 27 26 27 29 30 29 29 29 29 30 31 33 33 31 30 30 29 27 26 22 19 14 13 12 6 4
4 3 3 3 4 7 9 11 13 17 18 20 21 19 19 20 20 23 26 27 29 32 32 30 30 29 29 29 29 29 32 33 32 29 29 30 25 23 18 16 15 15 20
5 3 3 3 4 7 8 9 12 14 17 20 21 22 21 22 20 22 24 27 28 30 33 31 30 30 28 26 26 27 29 29 29 27 28 25 24 21 19 20 13 11 10
8 6 4 4 5 7 7 8 10 12 14 15 18 20 21 22 20 21 21 24 27 29 30 32 31 30 27 25 25 27 27 28 25 24 23 22 20 19 19 14 21 17 16
9 7 6 6 6 7 8 10 11 10 13 13 14 16 17 18 18 18 19 22 23 26 26 27 28 27 25 25 27 27 27 26 22 20 20 21 22 22 22 24 23 26 24
11 9 7 7 6 5 6 8 9 9 9 11 12 14 15 15 17 17 18 20 25 26 27 28 27 26 26 26 25 25 26 20 21 21 22 22 23 24 24 22 20 21 22
12 10 9 7 8 9 9 9 8 7 4 5 7 11 13 14 14 15 15 17 19 22 23 22 23 24 24 26 27 25 22 23 23 24 24 26 25 26 23 20 14 12 12
14 13 11 10 10 9 9 9 9 8 5 2 5 9 11 12 14 14 16 16 16 16 17 16 17 20 21 23 24 24 24 25 26 28 29 27 25 23 21 20 18 14 11
15 13 12 13 11 8 8 8 7 4 4 3 4 7 9 10 11 13 12 12 13 13 12 12 12 14 18 20 22 25 26 27 28 29 28 24 21 23 25 25 25 23 20
16 15 14 13 10 8 7 8 6 4 4 4 6 7 8 8 11 12 12 11 10 9 8 9 12 15 18 20 21 21 22 24 25 25 26 26 26 25 26 26 26 25 24
18 17 15 12 11 10 8 8 7 6 5 4 5 6 7 8 9 11 9 9 6 8 9 13 14 15 17 19 19 19 19 20 20 20 22 23 24 23 23 24 25 26 26
19 17 15 14 13 11 8 5 3 4 4 5 5 6 7 8 8 7 4 5 8 7 10 12 13 14 16 17 17 17 17 16 15 15 16 19 20 19 20 23 24 25 26
17 17 15 12 11 10 9 7 5 2 1 2 4 6 7 7 7 9 7 6 6 8 10 12 13 14 15 16 17 17 16 15 14 14 14 16 17 17 17 20 23 24 25
18 17 16 17 18 17 15 11 8 6 4 3 3 5 5 4 5 10 8 8 10 10 10 11 12 13 14 15 16 15 16 14 13 14 15 16 16 13 13 16 20 22 24
20 21 20 19 17 16 14 13 11 9 8 6 4 4 4 5 7 9 9 9 10 10 11 11 12 13 14 15 15 16 15 15 16 17 17 17 15 9 10 13 18 21 23
24 22 20 17 16 15 13 12 11 11 10 8 8 6 4 6 8 9 10 10 10 11 11 12 13 14 14 14 15 16 16 16 16 16 16 16 14 9 7 10 15 19 23
22 21 18 16 16 14 13 13 12 11 11 10 8 6 6 7 8 9 10 10 10 11 12 13 14 15 15 16 16 17 17 16 16 15 16 15 13 8 5 9 14 19 23
18 18 18 16 14 14 15 12 11 11 10 9 9 9 7 8 10 10 10 10 10 10 12 13 14 15 15 15 16 17 17 16 16 17 16 14 13 7 4 9 12 17 22
14 16 21 17 13 13 13 12 10 9 8 8 9 10 10 10 11 11 11 10 10 10 13 14 15 16 16 16 17 16 16 16 15 16 14 13 11 3 4 10 11 16 21
14 14 17 15 13 13 12 10 9 9 10 11 11 11 11 12 12 12 12 11 11 12 13 14 15 16 16 17 17 16 17 17 16 16 13 11 9 6 8 10 14 19 18
15 15 14 11 10 11 12 12 12 12 11 11 11 12 12 13 13 12 12 12 12 13 14 15 16 16 16 17 17 18 18 17 16 15 14 12 12 12 13 12 12 16 15
Wind_Direction
313 338 341 348 355 359 7 17 7 4 12 18 24 25 27 30 30 40 45 45 49 53 49 30 297 247 239 245 247 238 264 247 263 288 298 271 273 274 285 291 294 302 284
317 340 342 349 1 7 17 23 16 14 17 22 25 35 36 36 38 44 51 56 54 54 57 49 42 38 262 244 242 246 254 272 248 270 251 241 269 281 294 300 281 325 291
316 341 342 355 6 19 27 27 29 29 27 32 33 39 42 39 38 43 49 55 60 58 59 58 47 52 53 57 175 224 233 247 285 258 225 260 261 275 303 253 122 346 281
305 331 354 8 13 24 34 31 29 33 34 36 39 43 52 46 47 46 49 52 55 59 61 64 56 49 55 59 65 89 115 146 148 167 83 49 23 7 16 106 114 102 112
271 328 7 30 30 31 37 43 40 39 40 40 44 47 55 46 47 49 52 57 57 55 56 58 61 61 56 59 66 71 83 91 92 91 79 68 55 48 43 31 55 128 84
203 209 54 53 46 46 51 54 52 51 49 51 48 47 53 55 43 52 52 55 59 57 57 59 58 57 63 62 64 66 69 68 68 68 65 61 55 50 48 46 46 63 23
190 161 110 86 73 73 76 74 65 60 56 54 54 52 54 59 50 52 53 55 57 61 57 56 57 57 54 58 61 65 67 62 62 60 60 55 49 42 40 42 47 42 42
190 165 139 110 89 89 90 85 76 63 55 53 54 52 56 56 53 53 54 56 57 58 59 54 57 56 56 55 58 59 58 61 57 56 57 55 53 50 45 45 48 45 50
191 179 159 134 109 104 99 87 72 61 54 47 49 53 52 59 60 57 55 53 54 55 54 49 48 53 57 55 58 61 62 61 59 63 62 61 56 53 51 50 49 46 43
203 194 165 147 135 126 104 87 74 60 47 44 47 49 51 55 56 60 56 57 56 57 57 56 50 49 46 44 47 51 54 56 59 60 60 59 56 51 47 45 42 41 39
200 195 183 166 154 139 127 110 92 71 48 37 37 46 46 49 49 49 50 52 53 49 48 48 44 44 45 49 50 50 51 49 48 47 49 50 48 47 49 53 50 42 41
203 198 187 174 156 139 142 136 126 116 97 39 41 50 51 50 55 55 56 58 55 55 48 42 46 42 44 45 44 42 41 42 43 41 40 39 38 37 35 42 44 40 56
198 192 183 174 170 172 168 161 162 167 174 131 44 55 53 52 56 61 68 65 61 57 48 49 45 39 37 37 41 40 39 40 40 41 39 37 36 31 26 27 32 35 35
197 190 180 179 184 178 180 181 183 170 147 112 73 56 55 55 62 65 70 63 56 42 40 45 48 40 38 35 32 33 35 33 31 30 34 32 27 26 23 19 17 15 12
194 188 184 188 190 168 152 151 166 161 139 104 75 57 53 51 52 55 56 53 40 40 31 40 39 31 32 31 30 28 27 28 27 23 21 22 22 20 22 18 16 17 18
197 193 193 185 181 181 167 145 135 124 120 90 57 44 38 42 50 59 53 41 40 27 19 30 31 27 26 24 23 24 23 22 21 15 13 12 16 15 14 13 12 15 16
203 198 193 189 187 186 188 193 185 134 105 80 53 48 37 40 45 60 53 10 16 9 22 26 25 22 20 18 17 17 16 13 13 12 7 1 3 11 12 10 8 6 6
197 196 197 193 196 203 202 203 204 201 183 25 34 37 29 39 20 33 26 9 10 17 16 14 14 12 10 8 8 6 2 360 0 356 355 355 356 2 8 8 5 2 1
190 202 197 193 200 208 215 225 222 222 226 271 351 7 0 351 332 345 0 1 7 10 11 7 3 359 360 0 359 356 352 351 347 342 349 349 349 352 3 7 359 357 359
200 211 209 209 213 212 212 208 205 202 223 248 280 296 288 278 302 327 352 356 356 358 2 358 354 350 354 352 350 350 348 344 344 349 349 349 349 345 351 9 358 355 356
210 214 216 211 214 209 204 202 201 207 225 240 263 284 271 267 293 315 329 338 346 349 354 354 347 347 349 346 346 347 342 340 344 344 345 346 346 339 347 359 2 349 349
218 213 209 206 199 203 205 212 221 223 234 246 257 274 286 282 297 310 319 330 340 343 345 346 342 345 346 345 342 340 337 340 340 342 344 345 344 339 341 355 3 343 342
204 210 200 204 209 215 216 222 226 231 235 247 263 276 285 293 295 300 313 326 335 334 335 337 338 340 343 338 336 338 338 336 339 338 337 338 347 345 347 350 354 337 337
202 193 200 211 215 214 224 230 234 238 250 255 256 267 280 288 293 302 314 328 333 325 327 334 333 336 340 334 337 338 332 335 333 326 325 328 338 328 347 340 342 329 331
199 195 208 216 217 227 224 230 232 244 252 248 251 260 272 280 290 299 308 324 322 319 328 332 330 334 335 331 337 335 334 335 327 318 315 313 308 279 311 324 316 319 323
200 201 214 222 234 238 234 243 254 258 263 262 262 264 270 276 285 294 306 316 314 320 326 326 329 332 329 332 335 334 334 331 324 317 308 298 290 278 288 298 304 315 319
Height
1504 1501 1499 1496 1492 1488 1484 1480 1477 1473 1467 1463 1457 1451 1446 1440 1435 1429 1425 1421 1417 1413 1410 1408 1407 1407 1407 1408 1410 1412 1411 1412 1412 1414 1417 1418 1418 1418 1420 1421 1420 1417 1416
1501 1499 1498 1495 1492 1488 1484 1480 1478 1473 1469 1465 1460 1454 1449 1444 1439 1434 1429 1425 1421 1417 1412 1409 1406 1404 1403 1403 1405 1407 1408 1408 1410 1412 1411 1413 1414 1414 1414 1414 1414 1413 1413
1499 1497 1496 1494 1492 1489 1484 1482 1479 1475 1471 1467 1463 1458 1453 1449 1444 1440 1435 1430 1426 1422 1417 1412 1410 1405 1402 1401 1401 1402 1404 1406 1407 1408 1408 1409 1410 1411 1411 1411 1411 1410 1408
1498 1496 1495 1493 1492 1489 1485 1483 1480 1476 1473 1469 1465 1462 1457 1454 1450 1446 1441 1436 1432 1427 1423 1418 1416 1413 1408 1405 1402 1401 1402 1403 1405 1406 1407 1406 1407 1408 1408 1409 1409 1408 1406
1496 1495 1494 1493 1491 1490 1487 1485 1482 1479 1475 1472 1469 1465 1461 1458 1454 1451 1447 1442 1438 1434 1430 1426 1422 1420 1417 1413 1408 1406 1405 1404 1405 1405 1406 1406 1406 1407 1407 1408 1407 1406 1406
1494 1494 1493 1492 1491 1489 1488 1487 1485 1482 1479 1475 1472 1468 1465 1462 1460 1456 1452 1447 1443 1440 1436 1432 1429 1427 1423 1420 1417 1413 1411 1410 1409 1409 1410 1409 1410 1409 1409 1407 1406 1405 1407
1493 1492 1492 1491 1490 1489 1488 1487 1486 1484 1482 1479 1475 1471 1468 1465 1463 1460 1456 1452 1448 1445 1442 1439 1435 1432 1430 1427 1424 1421 1418 1417 1416 1417 1415 1414 1414 1413 1412 1409 1408 1408 1408
1491 1491 1491 1491 1490 1489 1488 1488 1487 1485 1483 1481 1478 1475 1471 1469 1467 1464 1461 1458 1453 1450 1446 1445 1442 1439 1437 1434 1431 1427 1425 1423 1422 1421 1420 1420 1419 1418 1416 1414 1413 1412 1410
1490 1490 1490 1490 1489 1489 1488 1488 1487 1486 1485 1483 1481 1478 1475 1473 1471 1469 1466 1463 1459 1455 1452 1451 1447 1445 1443 1441 1437 1434 1432 1430 1430 1428 1427 1425 1424 1422 1420 1418 1413 1413 1410
1487 1488 1489 1489 1489 1489 1489 1488 1488 1487 1486 1484 1483 1481 1478 1475 1474 1472 1469 1466 1463 1460 1458 1455 1453 1450 1448 1445 1441 1439 1437 1436 1436 1434 1431 1428 1426 1424 1422 1419 1418 1415 1414
1486 1487 1487 1487 1488 1488 1489 1489 1489 1489 1488 1486 1485 1482 1480 1478 1475 1473 1471 1468 1466 1463 1461 1458 1457 1455 1451 1449 1446 1443 1441 1442 1438 1436 1433 1430 1428 1426 1425 1424 1423 1420 1420
1485 1485 1486 1487 1487 1488 1489 1489 1489 1489 1488 1487 1486 1484 1482 1480 1477 1474 1473 1471 1469 1467 1465 1463 1461 1459 1456 1453 1449 1448 1446 1443 1440 1437 1434 1431 1429 1428 1428 1427 1427 1426 1425
1483 1484 1484 1485 1486 1487 1488 1488 1488 1488 1488 1487 1486 1485 1483 1482 1479 1477 1475 1474 1472 1469 1468 1466 1464 1461 1459 1456 1454 1451 1448 1444 1441 1437 1435 1434 1433 1432 1430 1428 1427 1426 1424
1481 1482 1483 1483 1484 1486 1487 1488 1488 1488 1487 1487 1486 1485 1484 1483 1481 1480 1478 1476 1474 1472 1470 1468 1465 1463 1461 1459 1455 1451 1448 1444 1441 1440 1439 1439 1437 1433 1430 1427 1425 1423 1421
1479 1481 1481 1482 1483 1485 1487 1487 1488 1487 1487 1487 1486 1485 1484 1483 1481 1480 1479 1476 1475 1473 1471 1469 1466 1463 1461 1458 1456 1453 1450 1448 1445 1444 1442 1440 1439 1436 1433 1431 1428 1426 1423
1476 1478 1480 1482 1483 1484 1486 1486 1487 1487 1486 1485 1484 1484 1483 1482 1481 1480 1480 1477 1475 1473 1471 1468 1466 1464 1461 1459 1457 1455 1452 1451 1449 1447 1444 1443 1442 1439 1436 1434 1432 1429 1426
1473 1475 1477 1480 1481 1483 1484 1486 1486 1486 1485 1485 1484 1484 1483 1482 1480 1479 1478 1476 1474 1473 1471 1468 1467 1465 1462 1460 1458 1456 1454 1453 1451 1448 1447 1444 1443 1441 1438 1435 1433 1430 1428
1471 1473 1475 1477 1479 1481 1482 1484 1485 1485 1484 1484 1484 1483 1482 1481 1479 1478 1477 1476 1475 1472 1470 1468 1466 1464 1462 1460 1458 1456 1455 1452 1450 1448 1446 1445 1443 1440 1438 1435 1433 1430 1428
1468 1471 1474 1476 1478 1480 1480 1481 1483 1483 1483 1482 1482 1482 1481 1480 1478 1477 1476 1475 1473 1471 1469 1467 1465 1464 1462 1460 1458 1456 1453 1451 1448 1446 1444 1442 1440 1438 1436 1435 1432 1429 1426
1467 1469 1471 1474 1476 1477 1478 1480 1481 1482 1481 1481 1481 1481 1480 1479 1477 1476 1475 1474 1472 1470 1468 1467 1465 1463 1461 1459 1456 1454 1452 1449 1446 1444 1442 1440 1438 1436 1435 1433 1431 1428 1425
1465 1467 1470 1472 1473 1474 1476 1477 1478 1479 1479 1479 1479 1478 1477 1477 1475 1474 1474 1472 1471 1469 1468 1466 1464 1461 1459 1457 1455 1452 1449 1446 1444 1442 1440 1438 1435 1434 1432 1431 1429 1427 1424
1462 1465 1468 1469 1470 1472 1473 1474 1475 1476 1476 1476 1476 1476 1475 1474 1473 1473 1472 1470 1469 1467 1466 1464 1461 1459 1457 1455 1452 1449 1446 1444 1442 1439 1437 1435 1433 1431 1430 1429 1427 1425 1423
1460 1462 1465 1467 1468 1470 1471 1472 1472 1473 1473 1473 1473 1472 1472 1472 1471 1471 1470 1469 1467 1465 1464 1462 1459 1457 1455 1452 1449 1447 1444 1441 1439 1436 1435 1433 1431 1429 1428 1427 1425 1424 1421
1457 1460 1462 1464 1466 1467 1469 1469 1470 1470 1470 1471 1471 1470 1470 1469 1468 1468 1467 1466 1465 1463 1461 1459 1457 1454 1452 1449 1447 1444 1441 1439 1436 1434 1432 1430 1429 1427 1426 1425 1423 1421 1419
1455 1458 1461 1463 1464 1465 1466 1467 1467 1468 1468 1468 1468 1467 1467 1466 1465 1465 1464 1464 1462 1460 1458 1456 1454 1451 1449 1446 1444 1441 1438 1435 1433 1430 1429 1427 1426 1425 1423 1422 1421 1419 1417
1453 1455 1458 1460 1462 1462 1463 1464 1464 1464 1465 1464 1465 1464 1464 1463 1463 1462 1462 1461 1459 1457 1455 1453 1451 1448 1446 1443 1440 1437 1435 1432 1429 1427 1425 1423 1422 1421 1420 1418 1417 1415 1413